Time,TemperatureF,DewpointF,PressureIn,WindDirection,WindDirectionDegrees,WindSpeedMPH,WindSpeedGustMPH,Humidity,HourlyPrecipIn,Conditions,Clouds,dailyrainin,SoftwareType,DateUTC
2013-04-10 00:00:00,63.5,34.7,0.00,SE,140,0.0,0.0,34,0.00,,---,0.00,VWS V14.01,2013-04-10 04:00:00,
2013-04-10 00:03:00,63.3,34.5,0.00,SE,140,0.0,0.0,34,0.00,,---,0.00,VWS V14.01,2013-04-10 04:03:00,
2013-04-10 00:09:00,63.1,34.3,0.00,SE,140,0.0,0.0,34,0.00,,---,0.00,VWS V14.01,2013-04-10 04:09:00,
2013-04-10 00:15:00,63.5,34.7,0.00,SE,140,0.0,0.0,34,0.00,,---,0.00,VWS V14.01,2013-04-10 04:15:00,
2013-04-10 00:20:00,63.9,35.0,0.00,SE,140,0.0,0.0,34,0.00,,---,0.00,VWS V14.01,2013-04-10 04:20:00,
2013-04-10 00:26:00,64.0,35.1,0.00,SE,140,0.0,0.0,34,0.00,,---,0.00,VWS V14.01,2013-04-10 04:26:00,
2013-04-10 00:31:00,64.0,35.1,0.00,SE,140,0.0,0.0,34,0.00,,---,0.00,VWS V14.01,2013-04-10 04:31:00,
2013-04-10 00:37:00,64.0,35.1,0.00,SE,140,0.0,0.0,34,0.00,,---,0.00,VWS V14.01,2013-04-10 04:37:00,
2013-04-10 00:42:00,63.9,35.0,0.00,SE,140,0.0,0.0,34,0.00,,---,0.00,VWS V14.01,2013-04-10 04:42:00,
2013-04-10 00:47:00,63.5,34.7,0.00,SE,140,0.0,0.0,34,0.00,,---,0.00,VWS V14.01,2013-04-10 04:47:00,
2013-04-10 00:52:00,63.3,34.5,0.00,SE,140,0.0,0.0,34,0.00,,---,0.00,VWS V14.01,2013-04-10 04:52:00,
2013-04-10 00:57:00,63.0,34.2,0.00,SE,140,0.0,0.0,34,0.00,,---,0.00,VWS V14.01,2013-04-10 04:57:00,
2013-04-10 01:02:00,62.6,33.9,0.00,SE,140,0.0,0.0,34,0.00,,---,0.00,VWS V14.01,2013-04-10 05:02:00,
2013-04-10 01:08:00,62.4,33.7,0.00,SE,140,0.0,0.0,34,0.00,,---,0.00,VWS V14.01,2013-04-10 05:08:00,
2013-04-10 01:13:00,62.2,33.5,0.00,SE,140,0.0,0.0,34,0.00,,---,0.00,VWS V14.01,2013-04-10 05:13:00,
2013-04-10 01:19:00,62.2,33.5,0.00,SE,140,0.0,0.0,34,0.00,,---,0.00,VWS V14.01,2013-04-10 05:19:00,
2013-04-10 01:25:00,62.2,33.5,0.00,SE,140,0.0,0.0,34,0.00,,---,0.00,VWS V14.01,2013-04-10 05:25:00,
2013-04-10 01:30:00,62.4,33.7,0.00,SE,140,0.0,0.0,34,0.00,,---,0.00,VWS V14.01,2013-04-10 05:30:00,
2013-04-10 01:36:00,62.4,33.7,0.00,SE,140,0.0,0.0,34,0.00,,---,0.00,VWS V14.01,2013-04-10 05:36:00,
2013-04-10 01:41:00,62.2,33.5,0.00,SE,140,0.0,0.0,34,0.00,,---,0.00,VWS V14.01,2013-04-10 05:41:00,
2013-04-10 01:47:00,61.9,33.2,0.00,SE,140,0.0,0.0,34,0.00,,---,0.00,VWS V14.01,2013-04-10 05:47:00,
2013-04-10 01:52:00,61.5,32.9,0.00,SE,140,0.0,0.0,34,0.00,,---,0.00,VWS V14.01,2013-04-10 05:52:00,
2013-04-10 01:57:00,61.5,32.9,0.00,SE,140,0.0,0.0,34,0.00,,---,0.00,VWS V14.01,2013-04-10 05:57:00,
2013-04-10 02:02:00,61.9,33.2,0.00,SE,140,0.0,0.0,34,0.00,,---,0.00,VWS V14.01,2013-04-10 06:02:00,
2013-04-10 02:08:00,61.5,32.9,0.00,SE,140,0.0,0.0,34,0.00,,---,0.00,VWS V14.01,2013-04-10 06:08:00,
2013-04-10 02:14:00,61.3,32.8,0.00,SE,140,0.0,0.0,34,0.00,,---,0.00,VWS V14.01,2013-04-10 06:14:00,
2013-04-10 02:19:00,61.0,32.4,0.00,SE,140,0.0,0.0,34,0.00,,---,0.00,VWS V14.01,2013-04-10 06:19:00,
2013-04-10 02:25:00,60.8,32.3,0.00,SE,140,0.0,0.0,34,0.00,,---,0.00,VWS V14.01,2013-04-10 06:25:00,
2013-04-10 02:30:00,60.8,32.3,0.00,SE,140,0.0,0.0,34,0.00,,---,0.00,VWS V14.01,2013-04-10 06:30:00,
2013-04-10 02:36:00,60.6,32.8,0.00,SE,140,0.0,0.0,35,0.00,,---,0.00,VWS V14.01,2013-04-10 06:36:00,
2013-04-10 02:42:00,60.4,32.7,0.00,SE,140,0.0,0.0,35,0.00,,---,0.00,VWS V14.01,2013-04-10 06:42:00,
2013-04-10 02:47:00,60.4,32.7,0.00,SE,140,0.0,0.0,35,0.00,,---,0.00,VWS V14.01,2013-04-10 06:47:00,
2013-04-10 02:52:00,60.4,32.7,0.00,SE,140,0.0,0.0,35,0.00,,---,0.00,VWS V14.01,2013-04-10 06:52:00,
2013-04-10 02:57:00,60.4,32.7,0.00,SE,140,0.0,0.0,35,0.00,,---,0.00,VWS V14.01,2013-04-10 06:57:00,
2013-04-10 03:03:00,60.6,32.8,0.00,SE,140,0.0,0.0,35,0.00,,---,0.00,VWS V14.01,2013-04-10 07:03:00,
2013-04-10 03:08:00,60.8,32.3,0.00,SE,140,0.0,0.0,34,0.00,,---,0.00,VWS V14.01,2013-04-10 07:08:00,
2013-04-10 03:14:00,60.8,32.3,0.00,SE,140,0.0,0.0,34,0.00,,---,0.00,VWS V14.01,2013-04-10 07:14:00,
2013-04-10 03:20:00,60.8,32.3,0.00,SE,140,0.0,0.0,34,0.00,,---,0.00,VWS V14.01,2013-04-10 07:20:00,
2013-04-10 03:25:00,60.6,32.8,0.00,SE,140,0.0,0.0,35,0.00,,---,0.00,VWS V14.01,2013-04-10 07:25:00,
2013-04-10 03:32:00,60.1,32.4,0.00,SE,140,0.0,0.0,35,0.00,,---,0.00,VWS V14.01,2013-04-10 07:32:00,
2013-04-10 03:37:00,59.9,32.2,0.00,SE,140,0.0,0.0,35,0.00,,---,0.00,VWS V14.01,2013-04-10 07:37:00,
2013-04-10 03:42:00,59.7,32.0,0.00,SE,140,0.0,0.0,35,0.00,,---,0.00,VWS V14.01,2013-04-10 07:42:00,
2013-04-10 03:48:00,59.9,32.2,0.00,SE,140,0.0,0.0,35,0.00,,---,0.00,VWS V14.01,2013-04-10 07:48:00,
2013-04-10 03:53:00,60.1,32.4,0.00,SE,140,0.0,0.0,35,0.00,,---,0.00,VWS V14.01,2013-04-10 07:53:00,
2013-04-10 04:00:00,60.1,32.4,0.00,SE,140,0.0,0.0,35,0.00,,---,0.00,VWS V14.01,2013-04-10 08:00:00,
2013-04-10 04:05:00,60.1,32.4,0.00,SE,140,0.0,0.0,35,0.00,,---,0.00,VWS V14.01,2013-04-10 08:05:00,
2013-04-10 04:11:00,60.3,32.5,0.00,SE,140,0.0,0.0,35,0.00,,---,0.00,VWS V14.01,2013-04-10 08:11:00,
2013-04-10 04:17:00,60.1,32.4,0.00,SE,140,0.0,0.0,35,0.00,,---,0.00,VWS V14.01,2013-04-10 08:17:00,
2013-04-10 04:22:00,60.1,32.4,0.00,SE,140,0.0,0.0,35,0.00,,---,0.00,VWS V14.01,2013-04-10 08:22:00,
2013-04-10 04:28:00,60.1,32.4,0.00,SE,140,0.0,0.0,35,0.00,,---,0.00,VWS V14.01,2013-04-10 08:28:00,
2013-04-10 04:34:00,59.7,32.0,0.00,SE,140,0.0,0.0,35,0.00,,---,0.00,VWS V14.01,2013-04-10 08:34:00,
2013-04-10 04:39:00,59.5,31.9,0.00,SE,140,0.0,0.0,35,0.00,,---,0.00,VWS V14.01,2013-04-10 08:39:00,
2013-04-10 04:45:00,59.4,31.0,0.00,SE,140,0.0,0.0,34,0.00,,---,0.00,VWS V14.01,2013-04-10 08:45:00,
2013-04-10 04:50:00,59.0,31.4,0.00,SE,140,0.0,0.0,35,0.00,,---,0.00,VWS V14.01,2013-04-10 08:50:00,
2013-04-10 04:56:00,59.2,31.6,0.00,SE,140,0.0,0.0,35,0.00,,---,0.00,VWS V14.01,2013-04-10 08:56:00,
2013-04-10 05:01:00,59.2,31.6,0.00,SE,140,0.0,0.0,35,0.00,,---,0.00,VWS V14.01,2013-04-10 09:01:00,
2013-04-10 05:06:00,59.2,31.6,0.00,SE,140,0.0,0.0,35,0.00,,---,0.00,VWS V14.01,2013-04-10 09:06:00,
2013-04-10 05:11:00,59.0,31.4,0.00,SE,140,0.0,0.0,35,0.00,,---,0.00,VWS V14.01,2013-04-10 09:11:00,
2013-04-10 05:17:00,59.0,31.4,0.00,SE,140,0.0,0.0,35,0.00,,---,0.00,VWS V14.01,2013-04-10 09:17:00,
2013-04-10 05:23:00,59.4,31.7,0.00,SE,140,0.0,0.0,35,0.00,,---,0.00,VWS V14.01,2013-04-10 09:23:00,
2013-04-10 05:28:00,59.2,31.6,0.00,SE,140,0.0,0.0,35,0.00,,---,0.00,VWS V14.01,2013-04-10 09:28:00,
2013-04-10 05:34:00,58.8,31.2,0.00,SE,140,0.0,0.0,35,0.00,,---,0.00,VWS V14.01,2013-04-10 09:34:00,
2013-04-10 05:40:00,58.6,31.1,0.00,SE,140,0.0,0.0,35,0.00,,---,0.00,VWS V14.01,2013-04-10 09:40:00,
2013-04-10 05:45:00,58.6,31.1,0.00,SE,140,0.0,0.0,35,0.00,,---,0.00,VWS V14.01,2013-04-10 09:45:00,
2013-04-10 05:51:00,58.5,30.9,0.00,SE,140,0.0,0.0,35,0.00,,---,0.00,VWS V14.01,2013-04-10 09:51:00,
2013-04-10 05:56:00,58.5,30.9,0.00,SE,140,0.0,0.0,35,0.00,,---,0.00,VWS V14.01,2013-04-10 09:56:00,
2013-04-10 06:01:00,57.9,30.5,0.00,SE,140,0.0,0.0,35,0.00,,---,0.00,VWS V14.01,2013-04-10 10:01:00,
2013-04-10 06:06:00,57.7,30.3,0.00,SE,140,0.0,0.0,35,0.00,,---,0.00,VWS V14.01,2013-04-10 10:06:00,
2013-04-10 06:12:00,57.6,30.1,0.00,SE,140,0.0,0.0,35,0.00,,---,0.00,VWS V14.01,2013-04-10 10:12:00,
2013-04-10 06:17:00,57.9,30.5,0.00,SE,140,0.0,0.0,35,0.00,,---,0.00,VWS V14.01,2013-04-10 10:17:00,
2013-04-10 06:23:00,58.1,30.6,0.00,SE,140,0.0,0.0,35,0.00,,---,0.00,VWS V14.01,2013-04-10 10:23:00,
2013-04-10 06:28:00,58.1,30.6,0.00,SE,140,0.0,0.0,35,0.00,,---,0.00,VWS V14.01,2013-04-10 10:28:00,
2013-04-10 06:33:00,58.3,30.8,0.00,SE,140,0.0,0.0,35,0.00,,---,0.00,VWS V14.01,2013-04-10 10:33:00,
2013-04-10 06:40:00,58.6,31.1,0.00,SE,140,0.0,0.0,35,0.00,,---,0.00,VWS V14.01,2013-04-10 10:40:00,
2013-04-10 06:45:00,58.6,31.1,0.00,SE,140,0.0,0.0,35,0.00,,---,0.00,VWS V14.01,2013-04-10 10:45:00,
2013-04-10 06:50:00,58.5,30.9,0.00,SE,140,0.0,0.0,35,0.00,,---,0.00,VWS V14.01,2013-04-10 10:50:00,
2013-04-10 06:56:00,58.5,30.9,0.00,SE,140,0.0,0.0,35,0.00,,---,0.00,VWS V14.01,2013-04-10 10:56:00,
2013-04-10 07:02:00,58.6,31.1,0.00,SE,140,0.0,0.0,35,0.00,,---,0.00,VWS V14.01,2013-04-10 11:02:00,
2013-04-10 07:08:00,59.4,31.7,0.00,SE,140,0.0,0.0,35,0.00,,---,0.00,VWS V14.01,2013-04-10 11:08:00,
2013-04-10 07:13:00,60.3,32.5,0.00,SE,140,0.0,0.0,35,0.00,,---,0.00,VWS V14.01,2013-04-10 11:13:00,
2013-04-10 07:19:00,60.6,32.8,0.00,SE,140,0.0,0.0,35,0.00,,---,0.00,VWS V14.01,2013-04-10 11:19:00,
2013-04-10 07:24:00,60.6,32.8,0.00,SE,140,0.0,0.0,35,0.00,,---,0.00,VWS V14.01,2013-04-10 11:24:00,
2013-04-10 07:29:00,60.6,32.8,0.00,SE,140,0.0,0.0,35,0.00,,---,0.00,VWS V14.01,2013-04-10 11:29:00,
2013-04-10 07:35:00,60.8,32.3,0.00,SE,140,0.0,0.0,34,0.00,,---,0.00,VWS V14.01,2013-04-10 11:35:00,
2013-04-10 07:40:00,61.0,32.4,0.00,SE,140,0.0,0.0,34,0.00,,---,0.00,VWS V14.01,2013-04-10 11:40:00,
2013-04-10 07:45:00,61.9,33.2,0.00,SE,140,0.0,0.0,34,0.00,,---,0.00,VWS V14.01,2013-04-10 11:45:00,
2013-04-10 07:51:00,62.6,33.9,0.00,SE,140,0.0,0.0,34,0.00,,---,0.00,VWS V14.01,2013-04-10 11:51:00,
2013-04-10 07:57:00,63.5,34.7,0.00,SE,140,0.0,0.0,34,0.00,,---,0.00,VWS V14.01,2013-04-10 11:57:00,
2013-04-10 08:02:00,64.2,35.3,0.00,SE,140,0.0,0.0,34,0.00,,---,0.00,VWS V14.01,2013-04-10 12:02:00,
2013-04-10 08:09:00,65.1,35.3,0.00,SE,140,0.0,0.0,33,0.00,,---,0.00,VWS V14.01,2013-04-10 12:09:00,
2013-04-10 08:14:00,65.8,36.0,0.00,SE,140,0.0,0.0,33,0.00,,---,0.00,VWS V14.01,2013-04-10 12:14:00,
2013-04-10 08:19:00,66.6,36.6,0.00,SE,146,0.0,0.0,33,0.00,,---,0.00,VWS V14.01,2013-04-10 12:19:00,
2013-04-10 08:25:00,67.5,37.4,0.00,SE,146,0.0,0.0,33,0.00,,---,0.00,VWS V14.01,2013-04-10 12:25:00,
2013-04-10 08:30:00,68.2,38.0,0.00,SE,146,0.0,0.0,33,0.00,,---,0.00,VWS V14.01,2013-04-10 12:30:00,
2013-04-10 08:36:00,68.9,38.6,0.00,SE,146,0.0,0.0,33,0.00,,---,0.00,VWS V14.01,2013-04-10 12:36:00,
2013-04-10 08:41:00,70.0,38.8,0.00,SE,146,0.0,0.0,32,0.00,,---,0.00,VWS V14.01,2013-04-10 12:41:00,
2013-04-10 08:46:00,71.1,39.7,0.00,SE,146,0.0,0.0,32,0.00,,---,0.00,VWS V14.01,2013-04-10 12:46:00,
2013-04-10 08:51:00,72.1,40.7,0.00,SE,146,0.0,0.0,32,0.00,,---,0.00,VWS V14.01,2013-04-10 12:51:00,
2013-04-10 08:57:00,72.9,41.3,0.00,SE,146,0.0,0.0,32,0.00,,---,0.00,VWS V14.01,2013-04-10 12:57:00,
2013-04-10 09:02:00,73.4,41.0,0.00,SE,136,0.0,0.0,31,0.00,,---,0.00,VWS V14.01,2013-04-10 13:02:00,
2013-04-10 09:08:00,73.8,41.3,0.00,SE,130,0.0,0.0,31,0.00,,---,0.00,VWS V14.01,2013-04-10 13:08:00,
2013-04-10 09:14:00,74.3,41.7,0.00,SE,139,0.0,2.2,31,0.00,,---,0.00,VWS V14.01,2013-04-10 13:14:00,
2013-04-10 09:19:00,74.8,42.2,0.00,SSE,149,0.0,0.0,31,0.00,,---,0.00,VWS V14.01,2013-04-10 13:19:00,
2013-04-10 09:25:00,75.2,42.5,0.00,SSE,149,0.0,0.0,31,0.00,,---,0.00,VWS V14.01,2013-04-10 13:25:00,
2013-04-10 09:30:00,75.7,43.0,0.00,SE,141,0.0,0.0,31,0.00,,---,0.00,VWS V14.01,2013-04-10 13:30:00,
2013-04-10 09:36:00,76.1,43.3,0.00,SSE,154,0.0,0.0,31,0.00,,---,0.00,VWS V14.01,2013-04-10 13:36:00,
2013-04-10 09:41:00,76.8,43.9,0.00,SSE,152,0.0,0.0,31,0.00,,---,0.00,VWS V14.01,2013-04-10 13:41:00,
2013-04-10 09:47:00,77.2,44.2,0.00,South,175,0.0,0.0,31,0.00,,---,0.00,VWS V14.01,2013-04-10 13:47:00,
2013-04-10 09:52:00,78.3,45.2,0.00,South,176,0.0,0.0,31,0.00,,---,0.00,VWS V14.01,2013-04-10 13:52:00,
2013-04-10 09:57:00,78.6,45.5,0.00,South,186,0.0,0.0,31,0.00,,---,0.00,VWS V14.01,2013-04-10 13:57:00,
2013-04-10 10:03:00,79.5,45.4,0.00,SSE,147,0.0,2.2,30,0.00,,---,0.00,VWS V14.01,2013-04-10 14:03:00,
2013-04-10 10:08:00,80.8,46.5,0.00,SE,145,2.7,2.7,30,0.00,,---,0.00,VWS V14.01,2013-04-10 14:08:00,
2013-04-10 10:14:00,81.7,47.3,0.00,SSW,212,0.0,0.0,30,0.00,,---,0.00,VWS V14.01,2013-04-10 14:14:00,
2013-04-10 10:19:00,81.5,47.1,0.00,SSW,201,0.0,0.0,30,0.00,,---,0.00,VWS V14.01,2013-04-10 14:19:00,
2013-04-10 10:24:00,82.0,47.6,0.00,South,179,0.0,0.0,30,0.00,,---,0.00,VWS V14.01,2013-04-10 14:24:00,
2013-04-10 10:30:00,84.0,48.4,0.00,SSE,165,0.0,0.0,29,0.00,,---,0.00,VWS V14.01,2013-04-10 14:30:00,
2013-04-10 10:36:00,85.1,49.3,0.00,SSE,167,0.0,3.1,29,0.00,,---,0.00,VWS V14.01,2013-04-10 14:36:00,
2013-04-10 10:42:00,85.3,49.5,0.00,West,261,0.0,0.0,29,0.00,,---,0.00,VWS V14.01,2013-04-10 14:42:00,
2013-04-10 10:48:00,85.6,49.8,0.00,SW,224,0.0,0.0,29,0.00,,---,0.00,VWS V14.01,2013-04-10 14:48:00,
2013-04-10 10:53:00,85.1,49.3,0.00,SSE,162,0.0,0.0,29,0.00,,---,0.00,VWS V14.01,2013-04-10 14:53:00,
2013-04-10 10:59:00,86.5,50.5,0.00,SSW,213,0.0,0.0,29,0.00,,---,0.00,VWS V14.01,2013-04-10 14:59:00,
2013-04-10 11:04:00,86.4,50.4,0.00,WNW,288,0.0,0.0,29,0.00,,---,0.00,VWS V14.01,2013-04-10 15:04:00,
2013-04-10 11:09:00,86.5,50.5,0.00,West,269,0.0,0.0,29,0.00,,---,0.00,VWS V14.01,2013-04-10 15:09:00,
2013-04-10 11:14:00,86.5,50.5,0.00,WSW,254,0.0,0.0,29,0.00,,---,0.00,VWS V14.01,2013-04-10 15:14:00,
2013-04-10 11:21:00,87.1,51.0,0.00,WSW,257,0.0,2.2,29,0.00,,---,0.00,VWS V14.01,2013-04-10 15:21:00,
2013-04-10 11:26:00,87.8,50.7,0.00,NW,316,0.0,3.1,28,0.00,,---,0.00,VWS V14.01,2013-04-10 15:26:00,
2013-04-10 11:32:00,87.3,51.2,0.00,SW,233,0.0,2.7,29,0.00,,---,0.00,VWS V14.01,2013-04-10 15:32:00,
2013-04-10 11:37:00,87.1,51.0,0.00,WSW,254,0.0,2.7,29,0.00,,---,0.00,VWS V14.01,2013-04-10 15:37:00,
2013-04-10 11:42:00,88.0,50.8,0.00,SW,231,0.0,0.0,28,0.00,,---,0.00,VWS V14.01,2013-04-10 15:42:00,
2013-04-10 11:47:00,88.7,51.4,0.00,SW,231,0.0,0.0,28,0.00,,---,0.00,VWS V14.01,2013-04-10 15:47:00,
2013-04-10 11:53:00,87.3,51.2,0.00,SW,226,0.0,0.0,29,0.00,,---,0.00,VWS V14.01,2013-04-10 15:53:00,
2013-04-10 11:58:00,86.5,50.5,0.00,SE,142,0.0,0.0,29,0.00,,---,0.00,VWS V14.01,2013-04-10 15:58:00,
2013-04-10 12:04:00,87.1,51.0,0.00,SW,236,0.0,0.0,29,0.00,,---,0.00,VWS V14.01,2013-04-10 16:04:00,
2013-04-10 12:10:00,87.8,50.7,0.00,WSW,245,2.2,2.2,28,0.00,,---,0.00,VWS V14.01,2013-04-10 16:10:00,
2013-04-10 12:15:00,87.4,51.3,0.00,WNW,289,0.0,0.0,29,0.00,,---,0.00,VWS V14.01,2013-04-10 16:15:00,
2013-04-10 12:20:00,86.9,50.8,0.00,WSW,239,0.0,0.0,29,0.00,,---,0.00,VWS V14.01,2013-04-10 16:20:00,
2013-04-10 12:25:00,87.3,51.2,0.00,SW,218,0.0,0.0,29,0.00,,---,0.00,VWS V14.01,2013-04-10 16:25:00,
2013-04-10 12:31:00,86.9,50.8,0.00,West,277,0.0,0.0,29,0.00,,---,0.00,VWS V14.01,2013-04-10 16:31:00,
2013-04-10 12:37:00,86.0,50.1,0.00,South,174,0.0,0.0,29,0.00,,---,0.00,VWS V14.01,2013-04-10 16:37:00,
2013-04-10 12:42:00,86.7,50.7,0.00,NNW,330,0.0,2.7,29,0.00,,---,0.00,VWS V14.01,2013-04-10 16:42:00,
2013-04-10 12:47:00,87.3,51.2,0.00,West,264,0.0,0.0,29,0.00,,---,0.00,VWS V14.01,2013-04-10 16:47:00,
2013-04-10 12:52:00,87.1,51.0,0.00,WNW,286,0.0,0.0,29,0.00,,---,0.00,VWS V14.01,2013-04-10 16:52:00,
2013-04-10 12:58:00,87.1,51.0,0.00,West,273,0.0,0.0,29,0.00,,---,0.00,VWS V14.01,2013-04-10 16:58:00,
2013-04-10 13:04:00,87.3,51.2,0.00,WSW,239,0.0,2.2,29,0.00,,---,0.00,VWS V14.01,2013-04-10 17:04:00,
2013-04-10 13:09:00,87.8,50.7,0.00,SW,227,0.0,0.0,28,0.00,,---,0.00,VWS V14.01,2013-04-10 17:09:00,
2013-04-10 13:15:00,88.2,51.0,0.00,SW,229,0.0,0.0,28,0.00,,---,0.00,VWS V14.01,2013-04-10 17:15:00,
2013-04-10 13:20:00,87.8,50.7,0.00,South,173,0.0,0.0,28,0.00,,---,0.00,VWS V14.01,2013-04-10 17:20:00,
2013-04-10 13:25:00,87.6,51.5,0.00,West,260,0.0,0.0,29,0.00,,---,0.00,VWS V14.01,2013-04-10 17:25:00,
2013-04-10 13:30:00,87.6,51.5,0.00,WNW,288,0.0,0.0,29,0.00,,---,0.00,VWS V14.01,2013-04-10 17:30:00,
2013-04-10 13:35:00,87.1,51.0,0.00,NW,313,0.0,0.0,29,0.00,,---,0.00,VWS V14.01,2013-04-10 17:35:00,
2013-04-10 13:40:00,86.4,50.4,0.00,West,262,0.0,0.0,29,0.00,,---,0.00,VWS V14.01,2013-04-10 17:40:00,
2013-04-10 13:45:00,86.0,50.1,0.00,West,259,0.0,0.0,29,0.00,,---,0.00,VWS V14.01,2013-04-10 17:45:00,
2013-04-10 13:51:00,87.3,51.2,0.00,SSW,208,0.0,0.0,29,0.00,,---,0.00,VWS V14.01,2013-04-10 17:51:00,
2013-04-10 13:57:00,87.8,50.7,0.00,WSW,256,0.0,0.0,28,0.00,,---,0.00,VWS V14.01,2013-04-10 17:57:00,
2013-04-10 14:02:00,87.6,51.5,0.00,West,262,0.0,0.0,29,0.00,,---,0.00,VWS V14.01,2013-04-10 18:02:00,
2013-04-10 14:07:00,86.9,50.8,0.00,West,272,0.0,0.0,29,0.00,,---,0.00,VWS V14.01,2013-04-10 18:07:00,
2013-04-10 14:12:00,87.1,51.0,0.00,WSW,244,0.0,0.0,29,0.00,,---,0.00,VWS V14.01,2013-04-10 18:12:00,
2013-04-10 14:18:00,87.6,51.5,0.00,WNW,287,0.0,0.0,29,0.00,,---,0.00,VWS V14.01,2013-04-10 18:18:00,
2013-04-10 14:23:00,87.6,51.5,0.00,SW,227,0.0,0.0,29,0.00,,---,0.00,VWS V14.01,2013-04-10 18:23:00,
2013-04-10 14:29:00,87.8,50.7,0.00,WSW,238,0.0,0.0,28,0.00,,---,0.00,VWS V14.01,2013-04-10 18:29:00,
2013-04-10 14:34:00,87.6,51.5,0.00,WNW,286,0.0,0.0,29,0.00,,---,0.00,VWS V14.01,2013-04-10 18:34:00,
2013-04-10 14:40:00,87.8,50.7,0.00,WNW,297,0.0,0.0,28,0.00,,---,0.00,VWS V14.01,2013-04-10 18:40:00,
2013-04-10 14:45:00,88.0,50.8,0.00,West,266,0.0,0.0,28,0.00,,---,0.00,VWS V14.01,2013-04-10 18:45:00,
2013-04-10 14:51:00,88.7,51.4,0.00,SW,227,0.0,0.0,28,0.00,,---,0.00,VWS V14.01,2013-04-10 18:51:00,
2013-04-10 14:57:00,88.9,51.6,0.00,SW,220,0.0,0.0,28,0.00,,---,0.00,VWS V14.01,2013-04-10 18:57:00,
2013-04-10 15:03:00,88.9,51.6,0.00,South,191,0.0,0.0,28,0.00,,---,0.00,VWS V14.01,2013-04-10 19:03:00,
2013-04-10 15:08:00,88.7,51.4,0.00,West,265,0.0,0.0,28,0.00,,---,0.00,VWS V14.01,2013-04-10 19:08:00,
2013-04-10 15:13:00,88.9,51.6,0.00,SSW,203,0.0,0.0,28,0.00,,---,0.00,VWS V14.01,2013-04-10 19:13:00,
2013-04-10 15:19:00,89.2,51.9,0.00,SW,235,0.0,0.0,28,0.00,,---,0.00,VWS V14.01,2013-04-10 19:19:00,
2013-04-10 15:25:00,89.2,51.9,0.00,SE,124,0.0,2.7,28,0.00,,---,0.00,VWS V14.01,2013-04-10 19:25:00,
2013-04-10 15:30:00,89.4,52.1,0.00,WSW,239,0.0,0.0,28,0.00,,---,0.00,VWS V14.01,2013-04-10 19:30:00,
2013-04-10 15:36:00,89.2,51.9,0.00,SE,130,3.1,3.1,28,0.00,,---,0.00,VWS V14.01,2013-04-10 19:36:00,
2013-04-10 15:41:00,89.1,51.8,0.00,West,266,0.0,0.0,28,0.00,,---,0.00,VWS V14.01,2013-04-10 19:41:00,
2013-04-10 15:46:00,88.7,51.4,0.00,SW,233,0.0,0.0,28,0.00,,---,0.00,VWS V14.01,2013-04-10 19:46:00,
2013-04-10 15:51:00,88.5,51.3,0.00,SW,232,0.0,0.0,28,0.00,,---,0.00,VWS V14.01,2013-04-10 19:51:00,
2013-04-10 15:57:00,88.3,51.1,0.00,SSW,204,0.0,0.0,28,0.00,,---,0.00,VWS V14.01,2013-04-10 19:57:00,
2013-04-10 16:03:00,88.2,51.0,0.00,WSW,251,0.0,0.0,28,0.00,,---,0.00,VWS V14.01,2013-04-10 20:03:00,
2013-04-10 16:08:00,87.6,51.5,0.00,South,173,0.0,2.2,29,0.00,,---,0.00,VWS V14.01,2013-04-10 20:08:00,
2013-04-10 16:15:00,87.6,51.5,0.00,WSW,239,2.7,2.7,29,0.00,,---,0.00,VWS V14.01,2013-04-10 20:15:00,
2013-04-10 16:20:00,88.2,51.0,0.00,WNW,283,2.2,3.1,28,0.00,,---,0.00,VWS V14.01,2013-04-10 20:20:00,
2013-04-10 16:26:00,88.5,51.3,0.00,West,264,0.0,0.0,28,0.00,,---,0.00,VWS V14.01,2013-04-10 20:26:00,
2013-04-10 16:31:00,88.5,51.3,0.00,South,176,0.0,0.0,28,0.00,,---,0.00,VWS V14.01,2013-04-10 20:31:00,
2013-04-10 16:36:00,88.0,50.8,0.00,WSW,255,0.0,0.0,28,0.00,,---,0.00,VWS V14.01,2013-04-10 20:36:00,
2013-04-10 16:42:00,87.6,51.5,0.00,WNW,291,0.0,0.0,29,0.00,,---,0.00,VWS V14.01,2013-04-10 20:42:00,
2013-04-10 16:47:00,87.6,51.5,0.00,SE,139,0.0,0.0,29,0.00,,---,0.00,VWS V14.01,2013-04-10 20:47:00,
2013-04-10 16:53:00,87.1,51.0,0.00,South,191,0.0,0.0,29,0.00,,---,0.00,VWS V14.01,2013-04-10 20:53:00,
2013-04-10 16:58:00,86.7,50.7,0.00,SW,232,0.0,0.0,29,0.00,,---,0.00,VWS V14.01,2013-04-10 20:58:00,
2013-04-10 17:04:00,86.7,50.7,0.00,WSW,241,0.0,0.0,29,0.00,,---,0.00,VWS V14.01,2013-04-10 21:04:00,
2013-04-10 17:10:00,86.7,50.7,0.00,WSW,241,0.0,0.0,29,0.00,,---,0.00,VWS V14.01,2013-04-10 21:10:00,
2013-04-10 17:15:00,86.7,50.7,0.00,WSW,241,0.0,0.0,29,0.00,,---,0.00,VWS V14.01,2013-04-10 21:15:00,
2013-04-10 17:22:00,86.2,50.2,0.00,West,270,0.0,0.0,29,0.00,,---,0.00,VWS V14.01,2013-04-10 21:22:00,
2013-04-10 17:27:00,85.8,49.9,0.00,West,265,0.0,0.0,29,0.00,,---,0.00,VWS V14.01,2013-04-10 21:27:00,
2013-04-10 17:32:00,85.3,49.5,0.00,West,265,0.0,0.0,29,0.00,,---,0.00,VWS V14.01,2013-04-10 21:32:00,
2013-04-10 17:38:00,84.9,49.2,0.00,SSW,196,0.0,0.0,29,0.00,,---,0.00,VWS V14.01,2013-04-10 21:38:00,
2013-04-10 17:43:00,84.6,48.8,0.00,SSW,196,0.0,0.0,29,0.00,,---,0.00,VWS V14.01,2013-04-10 21:43:00,
2013-04-10 17:48:00,84.2,48.5,0.00,SSW,196,0.0,0.0,29,0.00,,---,0.00,VWS V14.01,2013-04-10 21:48:00,
2013-04-10 17:53:00,84.2,48.5,0.00,SSW,196,0.0,0.0,29,0.00,,---,0.00,VWS V14.01,2013-04-10 21:53:00,
2013-04-10 17:58:00,84.0,48.4,0.00,SSW,196,0.0,0.0,29,0.00,,---,0.00,VWS V14.01,2013-04-10 21:58:00,
2013-04-10 18:04:00,83.7,48.1,0.00,SSW,196,0.0,0.0,29,0.00,,---,0.00,VWS V14.01,2013-04-10 22:04:00,
2013-04-10 18:09:00,83.3,47.8,0.00,SSW,196,0.0,0.0,29,0.00,,---,0.00,VWS V14.01,2013-04-10 22:09:00,
2013-04-10 18:14:00,82.9,47.5,0.00,SSW,196,0.0,0.0,29,0.00,,---,0.00,VWS V14.01,2013-04-10 22:14:00,
2013-04-10 18:19:00,82.6,47.1,0.00,SSW,196,0.0,0.0,29,0.00,,---,0.00,VWS V14.01,2013-04-10 22:19:00,
2013-04-10 18:25:00,82.0,47.6,0.00,SSW,196,0.0,0.0,30,0.00,,---,0.00,VWS V14.01,2013-04-10 22:25:00,
2013-04-10 18:30:00,81.7,47.3,0.00,SSW,196,0.0,0.0,30,0.00,,---,0.00,VWS V14.01,2013-04-10 22:30:00,
2013-04-10 18:36:00,81.3,47.0,0.00,SSW,196,0.0,0.0,30,0.00,,---,0.00,VWS V14.01,2013-04-10 22:36:00,
2013-04-10 18:42:00,80.8,46.5,0.00,SSW,196,0.0,0.0,30,0.00,,---,0.00,VWS V14.01,2013-04-10 22:42:00,
2013-04-10 18:47:00,80.4,46.2,0.00,SSW,196,0.0,0.0,30,0.00,,---,0.00,VWS V14.01,2013-04-10 22:47:00,
2013-04-10 18:53:00,79.7,45.6,0.00,SSW,196,0.0,0.0,30,0.00,,---,0.00,VWS V14.01,2013-04-10 22:53:00,
2013-04-10 18:58:00,79.3,45.2,0.00,SSW,196,0.0,0.0,30,0.00,,---,0.00,VWS V14.01,2013-04-10 22:58:00,
2013-04-10 19:04:00,79.2,45.1,0.00,SSW,196,0.0,0.0,30,0.00,,---,0.00,VWS V14.01,2013-04-10 23:04:00,
2013-04-10 19:10:00,78.6,45.5,0.00,SSW,196,0.0,0.0,31,0.00,,---,0.00,VWS V14.01,2013-04-10 23:10:00,
2013-04-10 19:15:00,78.1,45.0,0.00,SSW,196,0.0,0.0,31,0.00,,---,0.00,VWS V14.01,2013-04-10 23:15:00,
2013-04-10 19:21:00,77.2,44.2,0.00,SSW,196,0.0,0.0,31,0.00,,---,0.00,VWS V14.01,2013-04-10 23:21:00,
2013-04-10 19:26:00,76.5,43.6,0.00,SSW,196,0.0,0.0,31,0.00,,---,0.00,VWS V14.01,2013-04-10 23:26:00,
2013-04-10 19:31:00,75.6,42.8,0.00,SSW,196,0.0,0.0,31,0.00,,---,0.00,VWS V14.01,2013-04-10 23:31:00,
2013-04-10 19:36:00,75.0,42.4,0.00,SSW,196,0.0,0.0,31,0.00,,---,0.00,VWS V14.01,2013-04-10 23:36:00,
2013-04-10 19:42:00,74.5,41.9,0.00,SSW,196,0.0,0.0,31,0.00,,---,0.00,VWS V14.01,2013-04-10 23:42:00,
2013-04-10 19:47:00,74.1,41.6,0.00,SSW,196,0.0,0.0,31,0.00,,---,0.00,VWS V14.01,2013-04-10 23:47:00,
2013-04-10 19:52:00,73.9,41.4,0.00,SSW,196,0.0,0.0,31,0.00,,---,0.00,VWS V14.01,2013-04-10 23:52:00,
2013-04-10 19:59:00,73.6,41.1,0.00,SSW,196,0.0,0.0,31,0.00,,---,0.00,VWS V14.01,2013-04-10 23:59:00,
2013-04-10 20:04:00,73.4,41.0,0.00,SSW,196,0.0,0.0,31,0.00,,---,0.00,VWS V14.01,2013-04-11 00:04:00,
2013-04-10 20:10:00,73.4,41.0,0.00,SSW,196,0.0,0.0,31,0.00,,---,0.00,VWS V14.01,2013-04-11 00:10:00,
2013-04-10 20:15:00,73.4,41.0,0.00,SSW,196,0.0,0.0,31,0.00,,---,0.00,VWS V14.01,2013-04-11 00:15:00,
2013-04-10 20:21:00,73.6,41.1,0.00,SSW,196,0.0,0.0,31,0.00,,---,0.00,VWS V14.01,2013-04-11 00:21:00,
2013-04-10 20:27:00,74.1,41.6,0.00,SSW,196,0.0,0.0,31,0.00,,---,0.00,VWS V14.01,2013-04-11 00:27:00,
2013-04-10 20:32:00,74.1,41.6,0.00,SSW,196,0.0,0.0,31,0.00,,---,0.00,VWS V14.01,2013-04-11 00:32:00,
2013-04-10 20:38:00,73.8,41.3,0.00,SSW,196,0.0,0.0,31,0.00,,---,0.00,VWS V14.01,2013-04-11 00:38:00,
2013-04-10 20:43:00,73.0,41.5,0.00,SSW,196,0.0,0.0,32,0.00,,---,0.00,VWS V14.01,2013-04-11 00:43:00,
2013-04-10 20:49:00,72.7,41.2,0.00,SSW,196,0.0,0.0,32,0.00,,---,0.00,VWS V14.01,2013-04-11 00:49:00,
2013-04-10 20:54:00,73.0,41.5,0.00,SSW,196,0.0,0.0,32,0.00,,---,0.00,VWS V14.01,2013-04-11 00:54:00,
2013-04-10 21:00:00,73.4,41.0,0.00,SSW,196,0.0,0.0,31,0.00,,---,0.00,VWS V14.01,2013-04-11 01:00:00,
2013-04-10 21:06:00,72.9,41.3,0.00,SSW,196,0.0,0.0,32,0.00,,---,0.00,VWS V14.01,2013-04-11 01:06:00,
2013-04-10 21:11:00,72.5,41.0,0.00,SSW,196,0.0,0.0,32,0.00,,---,0.00,VWS V14.01,2013-04-11 01:11:00,
2013-04-10 21:17:00,72.3,40.8,0.00,SSW,196,0.0,0.0,32,0.00,,---,0.00,VWS V14.01,2013-04-11 01:17:00,
2013-04-10 21:22:00,72.1,40.7,0.00,SSW,196,0.0,0.0,32,0.00,,---,0.00,VWS V14.01,2013-04-11 01:22:00,
2013-04-10 21:27:00,71.8,40.4,0.00,SSW,196,0.0,0.0,32,0.00,,---,0.00,VWS V14.01,2013-04-11 01:27:00,
2013-04-10 21:33:00,71.2,39.9,0.00,SSW,196,0.0,0.0,32,0.00,,---,0.00,VWS V14.01,2013-04-11 01:33:00,
2013-04-10 21:38:00,70.9,39.6,0.00,SSW,196,0.0,0.0,32,0.00,,---,0.00,VWS V14.01,2013-04-11 01:38:00,
2013-04-10 21:43:00,70.5,39.3,0.00,SSW,196,0.0,0.0,32,0.00,,---,0.00,VWS V14.01,2013-04-11 01:43:00,
2013-04-10 21:48:00,70.3,39.1,0.00,SSW,196,0.0,0.0,32,0.00,,---,0.00,VWS V14.01,2013-04-11 01:48:00,
2013-04-10 21:53:00,70.2,39.0,0.00,SSW,196,0.0,0.0,32,0.00,,---,0.00,VWS V14.01,2013-04-11 01:53:00,
2013-04-10 21:58:00,70.0,38.8,0.00,SSW,196,0.0,0.0,32,0.00,,---,0.00,VWS V14.01,2013-04-11 01:58:00,
2013-04-10 22:04:00,69.8,38.6,0.00,SSW,196,0.0,0.0,32,0.00,,---,0.00,VWS V14.01,2013-04-11 02:04:00,
2013-04-10 22:09:00,69.8,38.6,0.00,SSW,196,0.0,0.0,32,0.00,,---,0.00,VWS V14.01,2013-04-11 02:09:00,
2013-04-10 22:15:00,69.6,39.3,0.00,SSW,196,0.0,0.0,33,0.00,,---,0.00,VWS V14.01,2013-04-11 02:15:00,
2013-04-10 22:20:00,69.8,38.6,0.00,North,0,0.0,0.0,32,0.00,,---,0.00,VWS V14.01,2013-04-11 02:20:00,
2013-04-10 22:26:00,70.7,39.4,0.00,North,2,0.0,0.0,32,0.00,,---,0.00,VWS V14.01,2013-04-11 02:26:00,
2013-04-10 22:32:00,71.8,40.4,0.00,East,94,0.0,0.0,32,0.00,,---,0.00,VWS V14.01,2013-04-11 02:32:00,
2013-04-10 22:37:00,71.8,40.4,0.00,North,2,0.0,0.0,32,0.00,,---,0.00,VWS V14.01,2013-04-11 02:37:00,
2013-04-10 22:43:00,71.2,39.9,0.00,North,4,0.0,0.0,32,0.00,,---,0.00,VWS V14.01,2013-04-11 02:43:00,
2013-04-10 22:48:00,71.1,39.7,0.00,North,357,0.0,0.0,32,0.00,,---,0.00,VWS V14.01,2013-04-11 02:48:00,
2013-04-10 22:54:00,70.7,39.4,0.00,North,357,0.0,0.0,32,0.00,,---,0.00,VWS V14.01,2013-04-11 02:54:00,
2013-04-10 23:00:00,70.3,39.1,0.00,NNE,13,0.0,0.0,32,0.00,,---,0.00,VWS V14.01,2013-04-11 03:00:00,
2013-04-10 23:05:00,70.2,39.0,0.00,North,10,0.0,0.0,32,0.00,,---,0.00,VWS V14.01,2013-04-11 03:05:00,
2013-04-10 23:11:00,70.2,39.0,0.00,North,8,0.0,0.0,32,0.00,,---,0.00,VWS V14.01,2013-04-11 03:11:00,
2013-04-10 23:17:00,70.0,38.8,0.00,NNE,31,0.0,0.0,32,0.00,,---,0.00,VWS V14.01,2013-04-11 03:17:00,
2013-04-10 23:22:00,69.4,39.1,0.00,NNE,18,0.0,0.0,33,0.00,,---,0.00,VWS V14.01,2013-04-11 03:22:00,
2013-04-10 23:28:00,68.9,38.6,0.00,WNW,300,0.0,0.0,33,0.00,,---,0.00,VWS V14.01,2013-04-11 03:28:00,
2013-04-10 23:34:00,69.1,38.8,0.00,North,2,0.0,0.0,33,0.00,,---,0.00,VWS V14.01,2013-04-11 03:34:00,
2013-04-10 23:39:00,68.9,38.6,0.00,North,0,0.0,0.0,33,0.00,,---,0.00,VWS V14.01,2013-04-11 03:39:00,
2013-04-10 23:44:00,69.1,38.8,0.00,North,357,2.2,2.2,33,0.00,,---,0.00,VWS V14.01,2013-04-11 03:44:00,
2013-04-10 23:49:00,69.4,39.1,0.00,NNW,328,0.0,0.0,33,0.00,,---,0.00,VWS V14.01,2013-04-11 03:49:00,
2013-04-10 23:54:00,69.6,39.3,0.00,NNE,29,0.0,2.2,33,0.00,,---,0.00,VWS V14.01,2013-04-11 03:54:00,